Regional Weather Roundup
Issued by NWS

Home | Current Version | Previous Version | Graphics & Text | Print | Product List | Glossary On
Versions: 1 2 3 4 5 6 7 8 9 10 11 12 13 14 15 16 17 18 19 20 21 22 23 24 25 26 27 28 29 30 31 32 33 34 35 36 37 38 39 40 41 42 43 44 45 46 47 48 49 50
000
ASUS43 KLOT 310800
RWRIL

ILLINOIS REGIONAL WEATHER ROUNDUP
NATIONAL WEATHER SERVICE CHICAGO/ROMEOVILLE IL
200 AM CST SAT JAN 31 2015

NOTE: "FAIR" INDICATES FEW OR NO CLOUDS BELOW 12,000 FEET WITH NO
SIGNIFICANT WEATHER AND/OR OBSTRUCTIONS TO VISIBILITY.

* THESE STATIONS ARE NOT UNDER NWS QUALITY CONTROL. THEY ALSO MAY NOT
  REPORT WEATHER SUCH AS PRECIPITATION OR FOG.

ILZ001-002-007-009-015-016-024-310900-
NORTHWEST ILLINOIS

CITY           SKY/WX    TMP DP  RH WIND       PRES   REMARKS
MOLINE         CLOUDY    27  19  72 SW6       30.30F WCI  20
STERLING*      PTCLDY    23  18  80 CALM      30.30F
$$

ILZ003-004-008-010-011-017-018-310900-
NORTH CENTRAL ILLINOIS

CITY           SKY/WX    TMP DP  RH WIND       PRES   REMARKS
ROCKFORD       CLOUDY    24  17  74 S9        30.30F WCI  14
$$

ILZ005-006-012>014-019>023-310900-
NORTHEAST ILLINOIS

CITY           SKY/WX    TMP DP  RH WIND       PRES   REMARKS
CHICAGO-OHARE  CLOUDY    23  16  74 SW5       30.30F WCI  17
CHICAGO-MIDWAY CLOUDY    26  17  68 SW8       30.31F WCI  18
AURORA         CLOUDY    23  16  74 S3        30.31F
WAUKEGAN       CLOUDY    21  15  78 SW5       30.29F WCI  15
DUPAGE AIRPORT CLOUDY    23  17  78 SW6       30.30F WCI  16
WHEELING       CLOUDY    23  15  71 SW3       30.32S
NORTHERLY ISL    N/A     26  17  68 S6          N/A  WCI  20
$$

LMZ740>746-310900-
SOUTHERN LAKE MICHIGAN

STATION/POSITION SKY/WX   TEMP    WIND        PRES    VSBY  WAVE
                          AIR SEA DIR/SP/G                  HT/PER
                          (F)     (DEG/KT/KT) (MB)    (MI)  (FT/S)
WAUKEGAN HARBOR            22     220/  9/ 13   N/A
HARRISON CRIB              25     190/ 13/ 15   N/A
BURNHAM HARBOR             26     200/  5/  7   N/A
CALUMET HARBOR             24     190/  5/  7   N/A
MICHIGAN CITY              22     180/  6/  7   N/A
$$

ILZ025>027-034>036-040-047-049-050-058-095>099-310900-
WEST-CENTRAL ILLINOIS

CITY           SKY/WX    TMP DP  RH WIND       PRES   REMARKS
QUINCY         CLOUDY    26  19  74 S8        30.33F WCI  18
$$

ILZ028>032-037-038-041>044-048-051>054-059>061-310900-
CENTRAL ILLINOIS

CITY           SKY/WX    TMP DP  RH WIND       PRES   REMARKS
DECATUR        CLEAR     25  20  81 S8        30.36F WCI  16
PEORIA         CLOUDY    28  22  78 S9        30.34F WCI  19
SPRINGFIELD    CLEAR     26  20  77 S7        30.36F WCI  18
TAYLORVILLE    NOT AVBL
$$

ILZ033-039-045-046-055>057-062-063-310900-
EAST-CENTRAL ILLINOIS

CITY           SKY/WX    TMP DP  RH WIND       PRES   REMARKS
CHAMPAIGN      CLOUDY    26  21  81 S8        30.36F WCI  18
MATTOON        CLEAR     24  17  74 S7        30.36F WCI  16
$$

ILZ079-100>102-310900-
SOUTHWEST ILLINOIS

CITY           SKY/WX    TMP DP  RH WIND       PRES   REMARKS
BELLEVILLE     CLOUDY    27  25  92 CALM      30.38F
CAHOKIA*       CLOUDY    29  22  75 CALM      30.39S
$$

ILZ064>066-069>071-074>076-080>082-084>086-088>090-092>094-310900-
SOUTH-CENTRAL ILLINOIS

CITY           SKY/WX    TMP DP  RH WIND       PRES   REMARKS
CARBONDALE     CLOUDY    25  21  85 CALM      30.41S
MT. VERNON     MOCLDY    21  16  79 CALM      30.40F
$$

ILZ067-068-072-073-078-083-087-091-310900-
SOUTHEAST ILLINOIS

CITY           SKY/WX    TMP DP  RH WIND       PRES   REMARKS
LAWRENCEVILLE  CLEAR     22  20  92 CALM      30.42S
$$

ABBREVIATIONS USED IN REMARKS
   TC - TEMPERATURE IN CELSIUS
  WCI - WIND CHILL INDEX
   HX - HEAT INDEX
  VSB - VISIBILITY
$$



USA.gov is the U.S. government's official web portal to all federal, state and local government web resources and services.